Weather in Lypove

Ukraine / Poltava Region     49°28′55″N   32°43′39″E
temp.,
°C
wind,
m/s
gust,
m/s
humid.,
%
clouds,
%
prec.,
mm/h
press.,
hPa
HPBL,
m
15 may, sat
sat1500:00+15ssw488366 0.1 1008174
03:00+12ssw48934 0.2 1009163
06:00+12ssw48925 0.0 1010218
09:00+17sw57725 0.0 1010572
12:00+20sw576014 0.4 10111469
15:00+22sw465057 0.9 10102086
18:00+18sw3471100 0.2 101180
21:00+16wsw2273100 0.2 101216
16 may, sun
sun1600:00+15w227626 0.0 101221
03:00+12wnw22855 0.0 101312
06:00+12n228529 0.0 101315
09:00+18ene226454 0.0 1014418
12:00+22e3353100 0.0 10131301
15:00+24ese444570 0.0 10112045
18:00+23ene3454100 0.0 1010710
21:00+17ne467117 0.0 100970
17 may, mon
mon1700:00+16ne41078100 0.0 1008191
03:00+15nne2492100 2.6 1007106
06:00+15n4794100 0.6 1005161
09:00+19nne4477100 0.6 1004392
12:00+21ne2268100 0.0 1003535
15:00+24se345821 0.0 10021320
18:00+24s246670 1.9 1001372
21:00+17sse38901 2.8 1002159
18 may, tue
tue1800:00+16se6109354 0.0 1002351
03:00+16s4793100 0.1 1001354
06:00+15wsw51096100 0.8 1002513
09:00+17sw57785 1.0 1003628
12:00+20s5867100 0.6 1003929
15:00+22sw8116214 3.2 10031444
18:00+18w588319 3.3 1003559
21:00+14w4989100 4.0 1005249
19 may, wed
wed1900:00+12w599294 0.0 1005382
03:00+12w51091100 0.0 1006516
06:00+12w4988100 0.0 1007423
09:00+15wsw337499 0.0 1011601
12:00+17w3361100 0.2 10121184
15:00+18wnw3359100 0.6 10111316
18:00+18nnw2259100 0.3 10101234
21:00+14n3377100 0.4 101138